Fort Wayne, IN

10:46 PM EDT on August 16, 2017 (GMT -0400)
Fort Wayne International

Weather History for KFWA - February, 2013

Change the Weather History Date:

Wednesday, February 20, 2013

  Actual Average Record
Temperature  
Mean Temperature 18 °F 30 °F  
Max Temperature 23 °F 38 °F 67 °F (1930)
Min Temperature 13 °F 21 °F -5 °F (2015)
Degree Days  
Heating Degree Days 47 35  
Month to date heating degree days 765 755  
Since 1 July heating degree days 4112 4326  
Cooling Degree Days 0 0  
Month to date cooling degree days 0 0  
Year to date cooling degree days 0 0  
Moisture  
Dew Point 11 °F    
Average Humidity 73    
Maximum Humidity 80    
Minimum Humidity 65    
Precipitation  
Precipitation T in 0.07 in 1.00 in (2014)
Month to date precipitation 0.47 1.42  
Year to date precipitation 3.90 3.68  
Snow  
Snow 0.10 in 0.20 in 3.00 in (1938)
Month to date snowfall 4.8 5.8  
Since 1 July snowfall 17.0 26.5  
Snow Depth T in    
Sea Level Pressure  
Sea Level Pressure 30.24 in    
Wind  
Wind Speed 15 mph (West)    
Max Wind Speed 20 mph    
Max Gust Speed 27 mph    
Visibility 10 miles    
Events Snow    
T = Trace of Precipitation, MM = Missing Value Source: NWS Daily Summary

Daily Weather History Graph

Daily Weather History Graph

Search for Another Location

Airport or City:

Trip Planner

Search our weather history database for the weather conditions in past years. The results will help you decide how hot, cold, wet, or windy it might be!

Date:

Astronomy

Feb. 20, 2013 Rise Set
Actual Time 7:27 AM EST 6:21 PM EST
Civil Twilight 6:59 AM EST 6:49 PM EST
Nautical Twilight 6:28 AM EST 7:21 PM EST
Astronomical Twilight 5:56 AM EST 7:53 PM EST
Moon 1:40 PM EST (2/20) 3:48 AM EST (2/20)
Length of Visible Light 11h 49m
Length of Day
10h 53m
Waxing Gibbous, 76% of the Moon is Illuminated
Feb 20
Waxing Gibbous
Feb 25
Full
Mar 4
Last Quarter
Mar 11
New
Mar 19
First Quarter

Hourly Weather History & Observations

Time (EST) Temp. Windchill Dew Point Humidity Pressure Visibility Wind Dir Wind Speed Gust Speed Precip Events Conditions
12:54 AM 16.0 °F -0.9 °F 8.1 °F 71% 30.12 in 10.0 mi West 19.6 mph 25.3 mph 0.00 in Snow Light Snow
1:54 AM 16.0 °F 0.1 °F 9.0 °F 74% 30.14 in 10.0 mi West 17.3 mph - 0.00 in Snow Light Snow
2:54 AM 16.0 °F 0.1 °F 9.0 °F 74% 30.15 in 10.0 mi West 17.3 mph 24.2 mph 0.00 in Snow Light Snow
3:13 AM 15.8 °F 0.3 °F 8.6 °F 73% 30.11 in 10.0 mi West 16.1 mph 26.5 mph 0.00 in Snow Light Snow
3:31 AM 15.8 °F -0.6 °F 8.6 °F 73% 30.12 in 10.0 mi West 18.4 mph - 0.00 in Snow Light Snow
3:54 AM 16.0 °F -0.9 °F 8.1 °F 71% 30.16 in 10.0 mi West 19.6 mph - 0.00 in Snow Light Snow
4:31 AM 15.8 °F -0.2 °F 8.6 °F 73% 30.12 in 10.0 mi West 17.3 mph 26.5 mph 0.00 in Snow Light Snow
4:54 AM 15.1 °F -2.0 °F 8.1 °F 74% 30.18 in 10.0 mi West 19.6 mph - 0.00 in Snow Light Snow
5:54 AM 15.1 °F -1.1 °F 8.1 °F 74% 30.20 in 10.0 mi West 17.3 mph - 0.00 in Snow Light Snow
6:54 AM 12.2 °F -3.1 °F 6.8 °F 79% 30.16 in 10.0 mi West 13.8 mph 23.0 mph N/A   Scattered Clouds
7:54 AM 12.9 °F -4.9 °F 7.0 °F 77% 30.23 in 10.0 mi West 19.6 mph 23.0 mph 0.00 in Snow Light Snow
8:54 AM 14.0 °F -2.0 °F 8.1 °F 77% 30.25 in 10.0 mi West 16.1 mph - 0.00 in Snow Light Snow
9:54 AM 16.0 °F 1.1 °F 9.0 °F 74% 30.25 in 9.0 mi West 15.0 mph 23.0 mph 0.00 in Snow Light Snow
10:54 AM 18.0 °F 3.6 °F 10.0 °F 71% 30.27 in 10.0 mi West 15.0 mph - 0.00 in Snow Light Snow
11:54 AM 19.0 °F 4.0 °F 10.9 °F 71% 30.28 in 10.0 mi West 17.3 mph 24.2 mph 0.00 in Snow Light Snow
12:06 PM 19.4 °F 4.5 °F 12.2 °F 74% 30.24 in 10.0 mi WSW 17.3 mph 25.3 mph 0.00 in Snow Light Snow
12:16 PM 21.2 °F 6.0 °F 12.2 °F 68% 30.24 in 10.0 mi West 19.6 mph 26.5 mph 0.00 in Snow Light Snow
12:54 PM 21.0 °F 6.2 °F 12.0 °F 68% 30.27 in 10.0 mi West 18.4 mph - 0.00 in Snow Light Snow
1:07 PM 21.2 °F 8.3 °F 12.2 °F 68% 30.23 in 10.0 mi West 13.8 mph 21.9 mph 0.00 in Snow Light Snow
1:54 PM 21.9 °F 7.8 °F 12.9 °F 68% 30.27 in 10.0 mi West 17.3 mph - 0.00 in Snow Light Snow
2:54 PM 23.0 °F 11.1 °F 12.9 °F 65% 30.29 in 10.0 mi West 12.7 mph 20.7 mph 0.00 in Snow Light Snow
3:54 PM 23.0 °F 9.6 °F 12.9 °F 65% 30.30 in 10.0 mi WNW 16.1 mph 25.3 mph 0.00 in Snow Light Snow
4:54 PM 23.0 °F 11.7 °F 12.9 °F 65% 30.30 in 10.0 mi NW 11.5 mph 20.7 mph 0.00 in   Mostly Cloudy
5:54 PM 21.9 °F 10.4 °F 12.9 °F 68% 30.30 in 9.0 mi WNW 11.5 mph - 0.00 in Snow Light Snow
6:54 PM 21.9 °F 10.4 °F 14.0 °F 72% 30.32 in 9.0 mi West 11.5 mph 18.4 mph 0.00 in Snow Light Snow
7:54 PM 21.0 °F 8.1 °F 15.1 °F 78% 30.34 in 8.0 mi West 13.8 mph - 0.00 in Snow Light Snow
8:54 PM 21.0 °F 9.9 °F 16.0 °F 81% 30.33 in 9.0 mi West 10.4 mph - 0.00 in Snow Light Snow
9:54 PM 21.0 °F 11.4 °F 16.0 °F 81% 30.33 in 9.0 mi NW 8.1 mph - 0.00 in Snow Light Snow
10:54 PM 21.9 °F 11.0 °F 15.1 °F 75% 30.33 in 9.0 mi NNW 10.4 mph - 0.00 in Snow Light Snow
11:01 PM 21.2 °F 12.6 °F 15.8 °F 80% 30.29 in 9.0 mi NNW 6.9 mph - 0.00 in Snow Light Snow
11:54 PM 21.9 °F 10.4 °F 15.1 °F 75% 30.32 in 9.0 mi North 11.5 mph - 0.00 in Snow Light Snow